Location: Helion Bumpstead
(52.0500°N, 0.4000°E)
Time: 22:04:44
(UTC+00:00)

NOSS 3-1 (A) - Pass Details

Date: 15 November 2025
Orbit: 621 x 1586 km, 63.4° (Epoch: 02 December)

Event Time Altitude Azimuth Distance (km) Brightness Sun altitude
Exits shadow 05:25:11 30° 278° (W) 1,391 3.7 -17.2°
Maximum altitude 05:27:24 46° 332° (NNW) 1,118 3.6 -16.9°
Drops below altitude 10° 05:33:28 10° 45° (NE) 2,767 6.3 -16.0°
Sets 05:36:32 0° 51° (NE) 3,888 7.3 -15.5°
